SES-17

Last updated on Sun Apr 12 2026 00:02:56 GMT+0000 (Coordinated Universal Time)

1 49332U 21095A 26101.05917700 -.00000271 00000+0 00000+0 0 9996 2 49332 0.0311 62.3838 0000832 339.7477 111.3601 1.00273252 17183
UTC large
Height (km)
Speed (km/s)
/
Latitude / Longitude
Inclination (degrees)
Orbital Period (minutes)
Azimuth
Elevation
Range (km)
Doppler Factor

Next 0 passes for location: London (51.5072 / 0.1276)

Sorry there are no passes over London.
SES-17